• In Czech Republic
  • List of Countries
  • For 7 days
  • Water Temperature
  • Satellite Maps
  • Weather Map
  • Weather Widgets
  • user-avatar
    Login

    Hourly Weather Morpeth

    Today, 26 February, Monday

    Time Temperature Precipitation Wind Pressure Humidity
    00:00 -2°C° 0 mm 5 mps 771 mmHg 75%
    01:00 -2°C° 0 mm 5 mps 771 mmHg 76%
    02:00 -2°C° 0 mm 5 mps 771 mmHg 77%
    03:00 -2°C° 0 mm 5 mps 771 mmHg 78%
    04:00 -2°C° 0 mm 5 mps 771 mmHg 77%
    05:00 -2°C° 0 mm 5 mps 771 mmHg 77%
    06:00 -2°C° 0 mm 5 mps 771 mmHg 77%
    07:00 -2°C° 0 mm 5 mps 772 mmHg 73%
    08:00 -1°C° 0 mm 5 mps 772 mmHg 69%
    09:00 -2°C° 0 mm 6 mps 772 mmHg 65%
    10:00 -2°C° 0 mm 6 mps 772 mmHg 62%
    11:00 -2°C° 0 mm 6 mps 772 mmHg 60%
    12:00 -1°C° 0 mm 6 mps 772 mmHg 57%
    13:00 -1°C° 0 mm 6 mps 772 mmHg 57%
    14:00 -1°C° 0 mm 6 mps 772 mmHg 57%
    15:00 -1°C° 0 mm 5 mps 772 mmHg 57%
    16:00 -1°C° 0 mm 5 mps 772 mmHg 61%
    17:00 -2°C° 0 mm 4 mps 772 mmHg 65%
    18:00 -3°C° 0 mm 4 mps 772 mmHg 69%
    19:00 -3°C° 0 mm 4 mps 772 mmHg 70%
    20:00 -3°C° 0 mm 4 mps 771 mmHg 70%
    21:00 -2°C° 0 mm 4 mps 771 mmHg 70%
    22:00 -3°C° 0.1 mm 4 mps 771 mmHg 73%
    23:00 -2°C° 0.1 mm 3 mps 770 mmHg 76%

    Tomorrow, 27 February, Tuesday

    Time Temperature Precipitation Wind Pressure Humidity
    00:00 -2°C° 0.1 mm 3 mps 770 mmHg 79%
    01:00 -3°C° 0.2 mm 4 mps 769 mmHg 80%
    02:00 -4°C° 0.2 mm 5 mps 768 mmHg 80%
    03:00 -4°C° 0.2 mm 7 mps 768 mmHg 81%
    04:00 -4°C° 0.5 mm 7 mps 767 mmHg 82%
    05:00 -3°C° 0.5 mm 7 mps 767 mmHg 84%
    06:00 -3°C° 0.5 mm 7 mps 766 mmHg 85%
    07:00 -4°C° 0.2 mm 8 mps 766 mmHg 83%
    08:00 -4°C° 0.2 mm 8 mps 766 mmHg 80%
    09:00 -2°C° 0.2 mm 8 mps 766 mmHg 78%
    10:00 -2°C° 0.1 mm 8 mps 767 mmHg 73%
    11:00 -2°C° 0.1 mm 8 mps 767 mmHg 68%
    12:00 -2°C° 0.1 mm 7 mps 767 mmHg 63%
    13:00 -2°C° 0.2 mm 7 mps 767 mmHg 64%
    14:00 -2°C° 0.2 mm 8 mps 767 mmHg 65%
    15:00 -2°C° 0.2 mm 8 mps 766 mmHg 66%
    16:00 -4°C° 0.2 mm 8 mps 766 mmHg 69%
    17:00 -4°C° 0.2 mm 8 mps 766 mmHg 73%
    18:00 -5°C° 0.2 mm 8 mps 766 mmHg 76%
    19:00 -5°C° 0.2 mm 8 mps 766 mmHg 76%
    20:00 -6°C° 0.2 mm 8 mps 766 mmHg 75%
    21:00 -6°C° 0.2 mm 9 mps 766 mmHg 75%
    22:00 -6°C° 0.2 mm 9 mps 766 mmHg 74%
    23:00 -8°C° 0.2 mm 9 mps 766 mmHg 74%

    Day after tomorrow, 28 February, Wednesday

    Time Temperature Precipitation Wind Pressure Humidity
    00:00 -8°C° 0.2 mm 9 mps 765 mmHg 73%
    01:00 -8°C° 0.2 mm 9 mps 765 mmHg 73%
    02:00 -8°C° 0.2 mm 8 mps 765 mmHg 72%
    03:00 -8°C° 0.2 mm 8 mps 764 mmHg 71%
    04:00 -8°C° 0.3 mm 8 mps 764 mmHg 73%
    05:00 -8°C° 0.3 mm 8 mps 764 mmHg 74%
    06:00 -9°C° 0.3 mm 9 mps 763 mmHg 76%
    07:00 -8°C° 0.4 mm 9 mps 763 mmHg 76%
    08:00 -8°C° 0.4 mm 10 mps 763 mmHg 76%
    09:00 -8°C° 0.4 mm 11 mps 763 mmHg 76%
    10:00 -7°C° 0.3 mm 10 mps 763 mmHg 74%
    11:00 -7°C° 0.3 mm 10 mps 763 mmHg 73%
    12:00 -5°C° 0.3 mm 9 mps 763 mmHg 71%
    13:00 -6°C° 0.4 mm 9 mps 763 mmHg 73%
    14:00 -7°C° 0.4 mm 10 mps 763 mmHg 74%
    15:00 -7°C° 0.4 mm 11 mps 763 mmHg 76%
    16:00 -7°C° 0.3 mm 10 mps 764 mmHg 76%
    17:00 -8°C° 0.3 mm 10 mps 764 mmHg 76%
    18:00 -8°C° 0.3 mm 9 mps 764 mmHg 76%
    19:00 -8°C° 0.3 mm 9 mps 764 mmHg 77%
    20:00 -8°C° 0.3 mm 10 mps 764 mmHg 78%
    21:00 -8°C° 0.3 mm 10 mps 764 mmHg 80%
    22:00 -8°C° 0.4 mm 10 mps 764 mmHg 81%
    23:00 -8°C° 0.4 mm 9 mps 763 mmHg 83%

    1 March, Thursday

    Time Temperature Precipitation Wind Pressure Humidity
    00:00 -8°C° 0.4 mm 9 mps 763 mmHg 84%
    01:00 -8°C° 0.3 mm 10 mps 763 mmHg 84%
    02:00 -8°C° 0.3 mm 10 mps 762 mmHg 83%
    03:00 -7°C° 0.3 mm 10 mps 762 mmHg 83%
    04:00 -7°C° 0.3 mm 10 mps 761 mmHg 84%
    05:00 -7°C° 0.3 mm 11 mps 761 mmHg 84%
    06:00 -7°C° 0.3 mm 11 mps 761 mmHg 85%
    07:00 -7°C° 0.3 mm 11 mps 761 mmHg 85%
    08:00 -7°C° 0.3 mm 11 mps 760 mmHg 85%
    09:00 -7°C° 0.3 mm 11 mps 760 mmHg 84%
    10:00 -6°C° 0.3 mm 11 mps 760 mmHg 84%
    11:00 -6°C° 0.3 mm 12 mps 759 mmHg 83%
    12:00 -6°C° 0.3 mm 12 mps 759 mmHg 83%
    13:00 -6°C° 0.2 mm 12 mps 758 mmHg 83%
    14:00 -6°C° 0.2 mm 12 mps 758 mmHg 83%
    15:00 -6°C° 0.2 mm 12 mps 757 mmHg 83%
    16:00 -6°C° 0.2 mm 11 mps 757 mmHg 83%
    17:00 -6°C° 0.2 mm 11 mps 757 mmHg 83%
    18:00 -6°C° 0.2 mm 11 mps 756 mmHg 84%
    19:00 -6°C° 0.1 mm 11 mps 756 mmHg 84%
    20:00 -6°C° 0.1 mm 11 mps 756 mmHg 84%
    21:00 -6°C° 0.1 mm 11 mps 756 mmHg 84%
    22:00 -6°C° 0.1 mm 11 mps 755 mmHg 84%
    23:00 -6°C° 0.1 mm 11 mps 755 mmHg 84%

    2 March, Friday

    Time Temperature Precipitation Wind Pressure Humidity
    00:00 -6°C° 0.1 mm 11 mps 754 mmHg 84%
    01:00 -6°C° 0.1 mm 11 mps 754 mmHg 84%
    02:00 -6°C° 0.1 mm 11 mps 753 mmHg 83%
    03:00 -6°C° 0.1 mm 11 mps 753 mmHg 83%
    04:00 -6°C° 0.1 mm 11 mps 752 mmHg 83%
    05:00 -6°C° 0.1 mm 11 mps 752 mmHg 84%
    06:00 -6°C° 0.1 mm 12 mps 751 mmHg 84%
    07:00 -6°C° 0.1 mm 12 mps 751 mmHg 84%
    08:00 -6°C° 0.1 mm 12 mps 751 mmHg 84%
    09:00 -6°C° 0.1 mm 12 mps 751 mmHg 84%
    10:00 -6°C° 0.2 mm 12 mps 750 mmHg 84%
    11:00 -4°C° 0.2 mm 11 mps 750 mmHg 85%
    12:00 -4°C° 0.2 mm 11 mps 750 mmHg 85%
    13:00 -4°C° 0.3 mm 11 mps 749 mmHg 86%
    14:00 -4°C° 0.3 mm 11 mps 749 mmHg 87%
    15:00 -4°C° 0.3 mm 10 mps 749 mmHg 88%
    16:00 -4°C° 0.2 mm 10 mps 748 mmHg 88%
    17:00 -4°C° 0.2 mm 10 mps 748 mmHg 88%
    18:00 -5°C° 0.2 mm 10 mps 747 mmHg 88%
    19:00 -4°C° 0.1 mm 10 mps 747 mmHg 88%
    20:00 -4°C° 0.1 mm 10 mps 747 mmHg 88%
    21:00 -4°C° 0.1 mm 9 mps 747 mmHg 88%
    22:00 -4°C° 0.1 mm 9 mps 746 mmHg 88%
    23:00 -4°C° 0.1 mm 10 mps 746 mmHg 88%

    3 March, Saturday

    Time Temperature Precipitation Wind Pressure Humidity
    00:00 -4°C° 0.1 mm 10 mps 745 mmHg 88%
    01:00 -4°C° 0.1 mm 10 mps 744 mmHg 88%
    02:00 -4°C° 0.1 mm 10 mps 744 mmHg 89%
    03:00 -4°C° 0.1 mm 11 mps 743 mmHg 89%
    04:00 -4°C° 0.8 mm 10 mps 743 mmHg 90%
    05:00 -4°C° 0.8 mm 10 mps 743 mmHg 91%
    06:00 -4°C° 0.8 mm 10 mps 742 mmHg 92%
    07:00 -3°C° 0.9 mm 10 mps 743 mmHg 93%
    08:00 -3°C° 0.9 mm 9 mps 743 mmHg 93%
    09:00 -3°C° 0.9 mm 9 mps 743 mmHg 94%
    10:00 -2°C° 0.5 mm 8 mps 743 mmHg 95%
    11:00 -2°C° 0.5 mm 8 mps 743 mmHg 95%
    12:00 -2°C° 0.5 mm 7 mps 743 mmHg 96%
    13:00 -2°C° 0.2 mm 7 mps 743 mmHg 97%
    14:00 -2°C° 0.2 mm 7 mps 743 mmHg 97%
    15:00 -2°C° 0.2 mm 6 mps 743 mmHg 97%
    16:00 -2°C° 0.1 mm 6 mps 743 mmHg 96%
    17:00 -2°C° 0.1 mm 6 mps 744 mmHg 96%
    18:00 -2°C° 0.1 mm 6 mps 744 mmHg 95%
    19:00 -2°C° 0.1 mm 6 mps 744 mmHg 95%
    20:00 -2°C° 0.1 mm 6 mps 744 mmHg 95%
    21:00 -1°C° 0.1 mm 6 mps 744 mmHg 95%
    22:00 -1°C° 0 mm 6 mps 743 mmHg 95%
    23:00 -1°C° 0 mm 6 mps 743 mmHg 95%
    Show more